Simultaneous Nadir Overpasses (SNOs) Predictions

Prediction of SNOs between AURA and NPP Satellite Orbit:

Table of predicted SNOs for the next 14.0 days since TLE Epoch: 12/28/2018
Index Date (AURA) Time (AURA) Lat,Lon (AURA) SZA (AURA ) Date (NPP) Time (NPP) Lat,Lon (NPP) SZA (NPP ) Distance(km) Time Diff (sec)
1 12/29/2018 19:08:26 79.58, 150.31 115.17 12/29/2018 19:08:03 79.58, 150.31 115.18 0.05 23
2 12/29/2018 19:57:48 -79.76, -40.70 65.10 12/29/2018 19:58:43 -79.76, -40.80 65.13 2.03 55
3 01/01/2019 10:36:42 -76.46, 83.50 61.18 01/01/2019 10:35:28 -76.67, 82.45 60.96 35.42 74
4 01/01/2019 11:24:52 79.72, -92.79 114.83 01/01/2019 11:24:53 79.73, -92.63 114.81 3.15 1
5 01/04/2019 02:52:02 -79.49,-146.23 65.02 01/04/2019 02:51:11 -79.48,-146.28 64.97 1.18 51
6 01/04/2019 03:41:21 79.75, 23.28 114.61 01/04/2019 03:41:47 79.75, 23.29 114.59 0.26 26
7 01/06/2019 19:08:27 -79.63, -29.37 65.46 01/06/2019 19:08:00 -79.63, -29.26 65.46 2.25 27
8 01/06/2019 19:57:49 79.77, 139.33 114.33 01/06/2019 19:58:40 79.76, 139.21 114.32 2.53 51
9 01/09/2019 11:24:56 -79.65, 86.67 65.79 01/09/2019 11:24:54 -79.65, 86.64 65.78 0.50 2




NCC Satellite Simultaneous Nadir Overpasses (SNOs) Prediction Service
